West Palm Beach, FL

6:48 PM EST on November 18, 2019 (GMT -0500)
Palm Beach International

Weather History for KPBI - June, 2019

Change the Weather History Date:

Wednesday, June 12, 2019

  Actual Average Record
Temperature  
Mean Temperature 84 °F 81 °F  
Max Temperature 92 °F 88 °F 96 °F (1952)
Min Temperature 76 °F 74 °F 65 °F (1911)
Degree Days  
Heating Degree Days 0 0  
Month to date heating degree days 0 0  
Since 1 June heating degree days 0 0  
Since 1 July heating degree days 144 233  
Cooling Degree Days 19 16  
Month to date cooling degree days 231 191  
Year to date cooling degree days 1632 1300  
Since 1 June cooling degree days 231 191  
Growing Degree Days 33 (Base 50)    
Moisture  
Dew Point 73 °F    
Average Humidity 72    
Maximum Humidity 88    
Minimum Humidity 56    
Precipitation  
Precipitation T in 0.28 in 9.71 in (1901)
Month to date precipitation 2.91 3.26  
Year to date precipitation 23.92 21.97  
Snow  
Snow 0.00 in - - ()
Month to date snowfall 0.0  
Since 1 June snowfall 0.0  
Since 1 July snowfall 0.0  
Snow Depth 0.00 in    
Sea Level Pressure  
Sea Level Pressure 30.01 in    
Wind  
Wind Speed 5 mph (South)    
Max Wind Speed 18 mph    
Max Gust Speed 23 mph    
Visibility 10 miles    
Events Thunderstorm    
T = Trace of Precipitation, MM = Missing Value Source: NWS Daily Summary

Daily Weather History Graph

Daily Weather History Graph

Search for Another Location

Airport or City:

Astronomy

Jun. 12, 2019 Rise Set
Actual Time 6:26 AM EDT 8:14 PM EDT
Civil Twilight 6:00 AM EDT 8:40 PM EDT
Nautical Twilight 5:28 AM EDT 9:12 PM EDT
Astronomical Twilight 4:55 AM EDT 9:45 PM EDT
Moon 3:48 PM EDT (6/12) 3:07 AM EDT (6/12)
Length of Visible Light 14h 40m
Length of Day
13h 47m
Waxing Gibbous, 76% of the Moon is Illuminated
Jun 12
Waxing Gibbous
Jun 17
Full
Jun 25
Last Quarter
Jul 2
New
Jul 9
First Quarter

Hourly Weather History & Observations

Time (EDT) Temp. Heat Index Dew Point Humidity Pressure Visibility Wind Dir Wind Speed Gust Speed Precip Events Conditions
12:53 AM 79.0 °F - 73.9 °F 84% 30.04 in 10.0 mi Calm Calm - N/A   Partly Cloudy
1:53 AM 79.0 °F - 73.9 °F 84% 30.01 in 10.0 mi Calm Calm - N/A   Partly Cloudy
2:53 AM 78.1 °F - 73.0 °F 84% 29.99 in 10.0 mi Calm Calm - N/A   Partly Cloudy
3:53 AM 78.1 °F - 73.9 °F 87% 29.98 in 10.0 mi SW 3.5 mph - N/A   Partly Cloudy
4:53 AM 78.1 °F - 73.0 °F 84% 29.98 in 10.0 mi Calm Calm - N/A   Partly Cloudy
5:53 AM 78.1 °F - 73.9 °F 87% 29.99 in 10.0 mi South 3.5 mph - N/A   Partly Cloudy
6:53 AM 77.0 °F - 73.0 °F 88% 30.00 in 10.0 mi Calm Calm - N/A   Scattered Clouds
7:53 AM 82.0 °F 88.6 °F 75.0 °F 79% 30.02 in 10.0 mi WSW 3.5 mph - N/A   Scattered Clouds
8:53 AM 84.0 °F 91.2 °F 73.9 °F 72% 30.03 in 10.0 mi Calm Calm - N/A   Scattered Clouds
9:53 AM 86.0 °F 93.0 °F 73.0 °F 65% 30.04 in 10.0 mi South 4.6 mph - N/A   Scattered Clouds
10:53 AM 88.0 °F 95.6 °F 73.0 °F 61% 30.04 in 10.0 mi South 8.1 mph - N/A   Scattered Clouds
11:53 AM 88.0 °F 96.5 °F 73.9 °F 63% 30.03 in 10.0 mi SE 5.8 mph - N/A   Scattered Clouds
12:53 PM 91.0 °F 101.6 °F 75.0 °F 59% 30.02 in 10.0 mi SE 12.7 mph - N/A   Scattered Clouds
1:53 PM 90.0 °F 99.0 °F 73.9 °F 59% 30.01 in 10.0 mi SE 15.0 mph - N/A   Scattered Clouds
2:53 PM 91.0 °F 100.4 °F 73.9 °F 57% 30.00 in 10.0 mi SE 15.0 mph - N/A   Scattered Clouds
3:53 PM 90.0 °F 99.0 °F 73.9 °F 59% 29.97 in 10.0 mi SSE 15.0 mph - N/A   Scattered Clouds
4:10 PM 90.0 °F 97.9 °F 73.0 °F 57% 29.97 in 10.0 mi SSE 12.7 mph - N/A Thunderstorm Thunderstorm
4:50 PM 89.6 °F 98.2 °F 73.4 °F 59% 29.98 in 10.0 mi SE 15.0 mph - N/A   Scattered Clouds
4:53 PM 90.0 °F 97.9 °F 73.0 °F 57% 29.98 in 10.0 mi SE 16.1 mph - N/A   Scattered Clouds
5:03 PM 88.0 °F 95.6 °F 73.0 °F 61% 29.98 in 10.0 mi SE 17.3 mph - N/A Thunderstorm Thunderstorm
5:48 PM 80.6 °F 83.2 °F 68.0 °F 65% 30.02 in 10.0 mi West 15.0 mph - N/A Thunderstorm Thunderstorm
5:53 PM 79.0 °F - 69.1 °F 72% 30.02 in 10.0 mi West 10.4 mph - N/A Thunderstorm Thunderstorm
6:53 PM 79.0 °F - 72.0 °F 79% 30.00 in 10.0 mi Calm Calm - 0.00 in Thunderstorm Thunderstorm
7:27 PM 79.0 °F - 70.0 °F 74% 30.01 in 10.0 mi SW 4.6 mph - N/A   Mostly Cloudy
7:53 PM 79.0 °F - 71.1 °F 77% 30.01 in 10.0 mi Calm Calm - N/A   Mostly Cloudy
8:53 PM 81.0 °F 84.4 °F 70.0 °F 69% 30.03 in 10.0 mi SE 5.8 mph - N/A   Scattered Clouds
9:53 PM 79.0 °F - 71.1 °F 77% 30.05 in 10.0 mi WNW 4.6 mph - N/A   Scattered Clouds
10:53 PM 79.0 °F - 71.1 °F 77% 30.06 in 10.0 mi Calm Calm - N/A   Scattered Clouds
11:53 PM 80.1 °F 83.6 °F 71.1 °F 74% 30.06 in 10.0 mi Calm Calm - N/A   Scattered Clouds